EW5862 Weather Reports


Display with metric or nautical units.
time (UTC)temp
F
wind
direction
speed
MPH
gust
MPH
rain 1hr
in
rain 24hr
in
rain mn
in
humidity
%
barometer
mb
20260508080515 52 0.0 0.0 0.00 0.33 0.00 80 1012.0
20260508075536 52 338 2.0 5.0 0.00 0.33 0.00 80 1011.8
20260508074518 52 0.0 2.0 0.00 0.33 0.00 80 1011.7
20260508073517 51 0.0 1.0 0.00 0.33 0.00 80 1011.9
20260508072517 51 0.0 0.0 0.00 0.33 0.00 80 1011.8
20260508071517 50 0.0 0.0 0.00 0.33 0.00 80 1011.5
20260508070517 50 0.0 0.0 0.00 0.33 0.00 81 1011.8
20260508065517 50 0.0 0.0 0.00 0.33 0.00 80 1011.6
20260508064517 49 0.0 0.0 0.00 0.33 0.00 80 1011.2
20260508063537 49 0.0 0.0 0.00 0.33 0.00 80 1011.3
20260508062537 47 0.0 0.0 0.00 0.33 0.00 81 1011.2
20260508061517 47 0.0 0.0 0.00 0.33 0.00 81 1010.8
20260508060517 46 0.0 0.0 0.00 0.33 0.00 81 1010.6
20260508055517 46 0.0 0.0 0.00 0.33 0.00 82 1010.5
20260508054517 46 0.0 0.0 0.00 0.33 0.00 82 1010.4
20260508053517 46 0.0 0.0 0.00 0.33 0.00 82
20260508052517 46 0.0 0.0 0.00 0.33 0.00 82
20260508051517 45 0.0 0.0 0.00 0.33 0.00 82
20260508050517 46 0.0 0.0 0.00 0.33 0.00 82
20260508045517 45 0.0 0.0 0.00 0.33 0.00 82
20260508044537 45 0.0 0.0 0.00 0.33 0.00 82
20260508043517 46 0.0 0.0 0.00 0.33 0.00 82 1009.9
20260508042517 46 0.0 0.0 0.00 0.33 0.00 82 1010.1
20260508041517 46 338 1.0 3.0 0.00 0.33 0.00 82 1010.1
20260508040517 46 338 3.0 4.0 0.00 0.33 0.00 82 1009.8
20260508035517 45 0.0 0.0 0.00 0.33 0.00 82 1009.5
20260508034517 45 0.0 0.0 0.00 0.33 0.00 82 1009.4
20260508033517 45 0.0 0.0 0.00 0.33 0.00 83 1009.7
20260508032517 45 338 1.0 3.0 0.00 0.33 0.00 82 1009.8
20260508031517 45 0.0 0.0 0.00 0.33 0.00 82 1010.2
20260508030517 45 0.0 0.0 0.00 0.33 0.00 82 1010.3
20260508025517 44 0.0 0.0 0.00 0.33 0.00 83 1010.4
20260508024517 44 0.0 0.0 0.00 0.33 0.00 84 1010.3
20260508023637 44 0.0 0.0 0.00 0.33 0.00 84 1010.6
20260508022517 44 0.0 0.0 0.00 0.33 0.00 83 1010.6
20260508021537 44 0.0 0.0 0.00 0.33 0.00 83 1010.7
20260508020517 44 0.0 0.0 0.00 0.33 0.00 84 1010.8
20260508015517 44 0.0 3.0 0.00 0.33 0.00 84 1010.8
20260508014537 44 0.0 1.0 0.00 0.33 0.00 84 1010.9
20260508013537 45 0.0 0.0 0.00 0.33 0.00 84 1011.1
20260508012517 45 0.0 0.0 0.00 0.33 0.00 84 1011.2
20260508011517 45 0.0 0.0 0.00 0.33 0.00 84 1011.3
20260508010517 45 0.0 0.0 0.00 0.33 0.00 84 1011.6
20260508005517 45 0.0 0.0 0.00 0.33 0.00 85 1011.8
20260508004517 45 0.0 0.0 0.00 0.33 0.00 84 1012.0
20260508003517 45 0.0 0.0 0.00 0.33 0.00 84 1011.9
20260508002517 45 0.0 0.0 0.00 0.33 0.00 85 1011.8
20260508001517 46 0.0 1.0 0.00 0.33 0.00 85 1012.0
20260508000517 46 338 1.0 2.0 0.00 0.33 0.00 84 1012.1
20260507235517 46 338 2.0 3.0 0.00 0.33 0.00 85 1012.0
20260507234516 47 0.0 0.0 0.00 0.33 0.00 85 1012.2
20260507233517 48 0.0 0.0 0.00 0.33 0.00 84 1012.3
20260507232517 48 0.0 0.0 0.00 0.33 0.00 85 1012.4
20260507231516 48 0.0 0.0 0.00 0.33 0.00 84 1012.3
20260507230516 48 0.0 0.0 0.00 0.33 0.00 84 1012.3
20260507225536 48 0.0 0.0 0.00 0.33 0.00 84 1012.3
20260507224517 48 0.0 0.0 0.00 0.33 0.00 84 1012.2
20260507223516 48 0.0 0.0 0.00 0.33 0.00 85 1012.3
20260507222537 48 0.0 0.0 0.00 0.33 0.00 85 1012.2
20260507221517 48 0.0 2.0 0.00 0.33 0.00 85 1012.2
20260507220516 48 338 4.0 4.0 0.00 0.33 0.00 85 1012.1
20260507215517 48 338 3.0 4.0 0.00 0.33 0.33 85 1012.0
20260507214517 48 23 4.0 4.0 0.00 0.33 0.33 85 1011.9
20260507213517 48 338 3.0 4.0 0.00 0.33 0.33 85 1011.9
20260507212517 49 315 2.0 3.0 0.00 0.33 0.33 85 1011.9
20260507211517 49 315 3.0 5.0 0.00 0.33 0.33 85 1011.8
20260507210517 50 0.0 0.0 0.00 0.33 0.33 85 1011.7
20260507205516 51 0.0 0.0 0.00 0.33 0.33 85 1011.6
20260507204517 51 0.0 0.0 0.00 0.33 0.33 85 1011.6
20260507203517 51 0.0 0.0 0.00 0.33 0.33 85 1011.6
20260507202557 52 338 2.0 3.0 0.00 0.33 0.33 84 1011.5
20260507201517 52 338 3.0 4.0 0.00 0.33 0.33 84 1011.4
20260507200516 53 338 3.0 4.0 0.00 0.33 0.33 84 1011.1
20260507195516 53 338 2.0 4.0 0.00 0.33 0.33 84 1011.1
20260507194536 53 338 1.0 4.0 0.00 0.33 0.33 84 1010.9
20260507193516 53 338 3.0 7.0 0.00 0.33 0.33 84 1010.6
20260507192517 53 338 5.0 8.0 0.00 0.33 0.33 84 1010.6
20260507191516 53 338 5.0 8.0 0.00 0.33 0.33 84 1010.4
20260507190516 53 338 7.0 10.0 0.00 0.33 0.33 84 1010.2
20260507185516 53 338 7.0 10.0 0.00 0.33 0.33 83 1010.1
20260507184516 54 338 6.0 10.0 0.00 0.33 0.33 83 1010.1
20260507183516 54 338 7.0 12.0 0.00 0.33 0.33 83 1009.9
20260507182516 54 338 9.0 13.0 0.00 0.33 0.33 83 1009.8
20260507181516 54 338 9.0 13.0 0.00 0.33 0.33 83 1009.7
20260507180516 55 338 9.0 13.0 0.00 0.33 0.33 84 1009.5
20260507175516 54 338 9.0 14.0 0.00 0.33 0.33 85 1009.5
20260507174516 54 338 11.0 16.0 0.00 0.33 0.33 85 1009.6
20260507173516 54 338 8.0 12.0 0.00 0.33 0.33 85 1009.7
20260507172516 54 338 9.0 13.0 0.00 0.33 0.33 85 1009.6
20260507171516 54 338 9.0 14.0 0.01 0.33 0.33 84 1009.4
20260507170516 0 0.0 0.0 0.04 0.33 0.33
20260507165516 0 0.0 0.0 0.10 0.33 0.33
20260507165016 0 0.0 0.0 0.10 0.33 0.33
20260507164016 0 0.0 0.0 0.11 0.33 0.33
20260507163543 53 0.0 0.0 0.12 0.33 0.33 84 1009.4
20260507163107 53 315 10.0 11.0 0.13 0.33 0.33 84 1009.3
20260507162516 53 315 11.0 13.0 0.13 0.33 0.33 84 1009.5
20260507161536 53 315 10.0 11.0 0.12 0.32 0.32 84 1009.4
20260507161100 53 338 12.0 12.0 0.09 0.29 0.29 84 1009.3
20260507160535 53 338 10.0 13.0 0.09 0.29 0.29 84 1009.2
20260507160016 53 338 10.0 12.0 0.09 0.29 0.29 84 1009.1
20260507155600 54 23 10.0 10.0 0.02 0.23 0.23 84 1009.2
20260507155100 54 0.0 0.0 0.02 0.23 0.23 84 1009.2
20260507154518 54 315 9.0 13.0 0.03 0.23 0.23 84 1009.4
20260507154016 54 315 6.0 9.0 0.04 0.22 0.22 84 1009.3
20260507153036 54 338 7.0 10.0 0.11 0.20 0.20 84 1009.3
20260507152036 54 338 9.0 12.0 0.20 0.20 0.20 84 1009.1
20260507151016 55 338 8.0 12.0 0.20 0.20 0.20 84 1009.1
20260507150016 54 338 10.0 14.0 0.20 0.20 0.20 84 1008.9
20260507145016 55 338 9.0 13.0 0.20 0.20 0.20 84 1008.7
20260507144036 56 338 12.0 17.0 0.18 0.18 0.18 84 1008.7
20260507143516 57 338 12.0 16.0 0.14 0.14 0.14 83 1008.7
20260507142516 59 338 11.0 15.0 0.02 0.02 0.02 79 1009.0
20260507141536 60 338 9.0 13.0 0.00 0.00 0.00 76 1008.9
20260507140536 60 338 11.0 16.0 0.00 0.00 0.00 77 1008.9
20260507135516 62 338 5.0 12.0 0.00 0.00 0.00 72 1009.0
20260507134536 64 0.0 1.0 0.00 0.00 0.00 60 1009.2
20260507133516 63 338 3.0 9.0 0.00 0.00 0.00 62 1009.1
20260507132536 63 338 5.0 12.0 0.00 0.00 0.00 63 1009.2
20260507131536 64 338 2.0 7.0 0.00 0.00 0.00 63 1009.3
20260507130516 64 338 3.0 12.0 0.00 0.00 0.00 59 1009.4
20260507125536 65 338 5.0 11.0 0.00 0.00 0.00 59 1009.7
20260507124516 65 338 7.0 12.0 0.00 0.00 0.00 57 1009.8
20260507123516 66 338 3.0 11.0 0.00 0.00 0.00 55 1009.9
20260507122536 65 338 5.0 13.0 0.00 0.00 0.00 59 1010.0
20260507121516 63 338 2.0 8.0 0.00 0.00 0.00 62 1010.0
20260507120516 62 338 5.0 11.0 0.00 0.00 0.00 62 1010.1
20260507115516 62 338 4.0 12.0 0.00 0.00 0.00 65 1010.0
20260507114536 62 338 8.0 11.0 0.00 0.00 0.00 63 1010.0
20260507113516 62 338 10.0 17.0 0.00 0.00 0.00 60 1010.0
20260507112516 62 338 8.0 15.0 0.00 0.00 0.00 61 1010.1
20260507111516 61 338 10.0 15.0 0.00 0.00 0.00 63 1010.3
20260507110516 61 338 7.0 15.0 0.00 0.00 0.00 66 1010.3
20260507105516 62 338 3.0 9.0 0.00 0.00 0.00 70 1010.4
20260507104516 61 338 2.0 8.0 0.00 0.00 0.00 71 1010.4
20260507103515 61 338 3.0 8.0 0.00 0.00 0.00 72 1010.6
20260507102516 62 338 5.0 11.0 0.00 0.00 0.00 70 1010.6
20260507101516 62 338 3.0 11.0 0.00 0.00 0.00 70 1010.7
20260507100536 62 338 1.0 8.0 0.00 0.00 0.00 70 1010.7
20260507095516 62 338 3.0 9.0 0.00 0.00 0.00 68 1010.9
20260507094536 63 338 4.0 10.0 0.00 0.00 0.00 67 1011.0
20260507093515 62 338 3.0 9.0 0.00 0.00 0.00 69 1011.1
20260507092515 60 338 2.0 7.0 0.00 0.00 0.00 71 1010.9
20260507091515 60 338 5.0 9.0 0.00 0.00 0.00 71 1010.9
20260507090515 60 338 4.0 11.0 0.00 0.00 0.00 71 1010.8
20260507085515 60 338 5.0 8.0 0.00 0.00 0.00 73 1010.8
20260507084516 59 338 3.0 7.0 0.00 0.00 0.00 74 1010.7
20260507083516 59 338 5.0 10.0 0.00 0.00 0.00 75 1010.7
20260507082515 59 338 2.0 5.0 0.00 0.00 0.00 75 1010.9
20260507081516 59 338 2.0 5.0 0.00 0.00 0.00 75 1011.0